Milwaukee, WI

8:38 PM CST on December 06, 2019 (GMT -0600)
Gen Mitchell International

Weather History for KMKE - September, 2019

Change the Weather History Date:

Monday, September 30, 2019

  Actual Average Record
Temperature  
Mean Temperature 74 °F 57 °F  
Max Temperature 87 °F 65 °F 88 °F (1971)
Min Temperature 62 °F 49 °F 30 °F (1899)
Degree Days  
Heating Degree Days 0 9  
Month to date heating degree days 126  
Since 1 July heating degree days 152  
Cooling Degree Days 9 1  
Month to date cooling degree days 69  
Year to date cooling degree days 634  
Growing Degree Days 24 (Base 50)    
Moisture  
Dew Point 66 °F    
Average Humidity 83    
Maximum Humidity 97    
Minimum Humidity 59    
Precipitation  
Precipitation 0.00 in 0.10 in 2.36 in (1893)
Month to date precipitation 3.18  
Year to date precipitation 27.36  
Snow  
Snow - 0.00 in 0.00 in ()
Month to date snowfall 0.0  
Since 1 July snowfall 0.0  
Since 1 September snowfall 0.0  
Snow Depth -    
Sea Level Pressure  
Sea Level Pressure 29.98 in    
Wind  
Wind Speed 8 mph ()    
Max Wind Speed 17 mph    
Max Gust Speed 25 mph    
Visibility 5.1 miles    
Events Fog    
T = Trace of Precipitation, MM = Missing Value Source: Averaged Metar Reports

Daily Weather History Graph

Daily Weather History Graph

Search for Another Location

Airport or City:

Astronomy

Sep. 30, 2019 Rise Set
Actual Time 6:47 AM CDT 6:34 PM CDT
Civil Twilight 6:19 AM CDT 7:03 PM CDT
Nautical Twilight 5:46 AM CDT 7:36 PM CDT
Astronomical Twilight 5:12 AM CDT 8:09 PM CDT
Moon 8:53 AM CDT (9/30) 8:07 PM CDT (9/30)
Length of Visible Light 12h 43m
Length of Day
11h 47m
Waxing Crescent, 6% of the Moon is Illuminated
Sep 30
Waxing Crescent
Oct 5
First Quarter
Oct 13
Full
Oct 21
Last Quarter
Oct 27
New

Hourly Weather History & Observations

Time (CDT) Temp. Heat Index Dew Point Humidity Pressure Visibility Wind Dir Wind Speed Gust Speed Precip Events Conditions
12:52 AM 62.1 °F - 61.0 °F 96% 30.11 in 0.8 mi East 4.6 mph - N/A   Overcast
1:52 AM 63.0 °F - 61.0 °F 93% 30.10 in 0.8 mi East 5.8 mph - N/A   Overcast
2:52 AM 64.0 °F - 62.1 °F 93% 30.08 in 0.8 mi ESE 9.2 mph - N/A   Overcast
3:34 AM 63.0 °F - 61.0 °F 93% 30.07 in 0.2 mi SE 11.5 mph - N/A Fog Fog
3:52 AM 63.0 °F - 62.1 °F 97% 30.07 in 0.2 mi SE 8.1 mph - N/A Fog Fog
4:52 AM 64.0 °F - 62.1 °F 93% 30.06 in 0.2 mi SE 9.2 mph - 0.00 in Fog Light Drizzle
5:52 AM 63.0 °F - 62.1 °F 97% 30.05 in 0.2 mi SE 9.2 mph - 0.00 in Fog Light Drizzle
6:38 AM 64.0 °F - 63.0 °F 96% 30.05 in 0.2 mi SE 11.5 mph - 0.00 in Fog Light Drizzle
6:52 AM 64.9 °F - 63.0 °F 93% 30.05 in 0.2 mi SSE 8.1 mph - 0.00 in Fog Light Drizzle
7:52 AM 64.9 °F - 64.0 °F 97% 30.03 in 0.2 mi SE 8.1 mph - 0.00 in Fog Light Drizzle
9:18 AM 66.9 °F - 64.9 °F 93% 30.02 in 0.5 mi South 6.9 mph - N/A   Overcast
9:47 AM 68.0 °F - 66.2 °F 94% 30.01 in 1.0 mi South 8.1 mph - N/A   Overcast
9:52 AM 68.0 °F - 66.0 °F 93% 30.01 in 1.0 mi South 8.1 mph - N/A   Overcast
10:13 AM 70.0 °F - 68.0 °F 93% 30.00 in 2.0 mi South 5.8 mph - N/A   Mostly Cloudy
10:20 AM 71.1 °F - 66.9 °F 87% 30.00 in 6.0 mi South 6.9 mph - N/A   Mostly Cloudy
10:52 AM 73.9 °F - 68.0 °F 82% 29.99 in 9.0 mi SSW 10.4 mph - N/A   Scattered Clouds
11:52 AM 80.1 °F 83.6 °F 71.1 °F 74% 29.96 in 10.0 mi South 8.1 mph - N/A   Scattered Clouds
12:52 PM 84.9 °F 89.4 °F 70.0 °F 61% 29.94 in 10.0 mi SSW 16.1 mph - N/A   Scattered Clouds
1:52 PM 86.0 °F 90.7 °F 70.0 °F 59% 29.91 in 10.0 mi SSW 17.3 mph - N/A   Scattered Clouds
3:52 PM 84.9 °F 89.4 °F 70.0 °F 61% 29.90 in 10.0 mi SSW 11.5 mph 21.9 mph N/A   Scattered Clouds
4:52 PM 84.0 °F 88.4 °F 70.0 °F 63% 29.88 in 10.0 mi SSW 15.0 mph 25.3 mph N/A   Mostly Cloudy
5:52 PM 82.9 °F 87.0 °F 70.0 °F 65% 29.88 in 10.0 mi SSW 16.1 mph 25.3 mph N/A   Scattered Clouds
6:52 PM 81.0 °F 84.1 °F 69.1 °F 67% 29.87 in 10.0 mi SSW 16.1 mph 21.9 mph N/A   Scattered Clouds
7:52 PM 79.0 °F - 69.1 °F 72% 29.87 in 10.0 mi South 11.5 mph - N/A   Partly Cloudy
8:52 PM 78.1 °F - 69.1 °F 74% 29.87 in 10.0 mi SSW 10.4 mph - N/A   Partly Cloudy
9:52 PM 77.0 °F - 68.0 °F 74% 29.88 in 10.0 mi SSW 8.1 mph - N/A   Partly Cloudy
10:52 PM 75.0 °F - 68.0 °F 79% 29.89 in 10.0 mi SSW 8.1 mph - N/A   Partly Cloudy
11:52 PM 75.0 °F - 66.9 °F 76% 29.90 in 10.0 mi SW 5.8 mph - N/A   Partly Cloudy